[ hide orbit diagram ]
For accurate long-term ephemerides, please instead use our Horizons system.This orbit viewer was implemented using two-body methods, and hence should not be used for determining accurate long-term trajectories (over several years or decades) or planetary encounter circumstances.
Orbital Elements at Epoch 2459000.5 (2020-May-31.0) TDB
Reference: JPL 14 (heliocentric ecliptic J2000)
Element | Value | Uncertainty (1-sigma) | Units |
e | .1464343402890688 | 5.7445e-08 | |
a | 2.381403286662028 | 1.3931e-08 | au |
q | 2.032684067417454 | 1.3585e-07 | au |
i | 6.73112263663544 | 6.2556e-06 | deg |
node | 183.3677144799998 | 3.8743e-05 | deg |
peri | 139.4605548757763 | 4.3932e-05 | deg |
M | 82.9279938102507 | 1.7038e-05 | deg |
tp | 2458691.294999903883 (2019-Jul-26.79499990) | 6.3987e-05 | TDB |
period | 1342.294621154127 3.68 | 1.1779e-05 3.225e-08 | d yr |
n | .2681974540659829 | 2.3534e-09 | deg/d |
Q | 2.730122505906603 | 1.5971e-08 | au |
|
| | Orbit Determination Parameters
Additional Information
|
[ show covariance matrix ]
Physical Parameter Table
Parameter |
Symbol |
Value |
Units |
Sigma |
Reference |
Notes |
absolute magnitude |
H |
16.9 |
|
n/a |
MPO446368 |
|
rotation period |
rot_per |
1.05 |
h |
n/a |
LCDB (Rev. 2020-October); Warner et al., 2009 |
lower-limit; Incomplete or inconclusive result. Published Reference List: [Erasmus, N.; McNeill, A.; Mommert, M.; Trilling, D.E.; et al. (2018) Ap. J. Suppl. Series 237, A19.] [Erasmus, N.; McNeill, A.; Mommert, N.; Trilling, D.E.; et al. (2019) Ap. J. Suppl. Series 242, A15.] |
|
274301 Wikipedia | Discovered 2008 Aug. 25 at Andrushivka. |
Wikipedia is a free, copyleft, collaboratively edited online encyclopedia launched in 2001. In 11 years of its compilation it became one of the largest reference works and one of the most visited web-sites on the Internet. It is developed in more than 270 languages by enthusiasts from all over the world. |
NOTE: some special characters may not display properly (any characters within {} are an attempt to place the proper accent above a character) |
Reference: 20130127/MPCPages.arc | Last Updated: 2013-01-31 |
|
[ show close-approach data ]
Alternate Designations
2008 QH24 = 1997 RO4 = 2007 FK34 |
|
|